FLOCK 4BE-22 (60494 NORAD) Tracking and Keplerian Element Data

This shows tracking and keplerian element data for the satellite.

Feedback or suggestion? Click here.




ElementValue
Catalog60494
NameFLOCK 4BE-22
Epoch Orbit864
Epoch Day286.76564184
Epoch Year2024
RAAN1.4107
Inclination97.4346
Eccentricity0.0005075
Argument of Perigee285.3312
Mean Anonmoly74.7362
Mean Motion15.19676335
Decay Rate0.00019923
L11 60494U 24149AC 24286.76564184 .00019923 00000+0 93481-3 0 9997
L22 60494 97.4346 1.4107 0005075 285.3312 74.7362 15.19676335 8645



Live tracking and technical data element details for FLOCK 4BE-22 (NORAD 60494). FLOCK 4BE-22 can be tracked NOW for your location showing map with azimuth and elevation plus other details from your city location.







IsCatalogInMostPopularTable: catalog: 60494, numindb: 7
Update: records affected: 1



GetName: 60494 FLOCK 4BE-22

Hit Count: updated at: Wed, 04 Dec 2024 19:32:56 GMT